| time (UTC) | temp F | wind direction | speed knots | gust knots | rain 1hr in | rain 24hr in | rain mn in | humidity % | barometer mb |
| 20260508140032 | 53 | 44 | 4.3 | 9.6 | 0.00 | 0.00 | 0.00 | 69 | 1019.0 |
| 20260508131530 | 53 | 50 | 3.5 | 8.7 | 0.00 | 0.00 | 0.00 | 71 | 1018.6 |
| 20260508130030 | 52 | 58 | 5.2 | 9.6 | 0.00 | 0.00 | 0.00 | 71 | 1018.5 |
| 20260508123032 | 51 | 49 | 5.2 | 8.7 | 0.00 | 0.00 | 0.00 | 78 | 1018.4 |
| 20260508121651 | 46 | 48 | 4.3 | 9.6 | 0.00 | 0.00 | 0.00 | 86 | 1018.2 |
| 20260508120031 | 44 | 132 | 0.0 | 4.3 | 0.00 | 0.00 | 0.00 | 87 | 1018.2 |
| 20260508114532 | 43 | 135 | 0.0 | 0.0 | 0.00 | 0.00 | 0.00 | 86 | 1018.1 |
| 20260508113030 | 44 | 135 | 0.0 | 0.0 | 0.00 | 0.00 | 0.00 | 84 | 1018.0 |
| 20260508111546 | 44 | 135 | 0.0 | 0.0 | 0.00 | 0.00 | 0.00 | 82 | 1017.8 |
| 20260508110038 | 45 | 135 | 0.0 | 0.0 | 0.00 | 0.00 | 0.00 | 79 | 1017.8 |
| 20260508104529 | 46 | 135 | 0.0 | 2.6 | 0.00 | 0.00 | 0.00 | 79 | 1017.8 |
| 20260508101534 | 46 | 163 | 1.7 | 5.2 | 0.00 | 0.00 | 0.00 | 77 | 1017.9 |
| 20260508100032 | 46 | 135 | 1.7 | 3.5 | 0.00 | 0.00 | 0.00 | 78 | 1017.8 |
| 20260508094533 | 46 | 136 | 0.9 | 2.6 | 0.00 | 0.00 | 0.00 | 76 | 1017.8 |
| 20260508093031 | 46 | 144 | 0.9 | 2.6 | 0.00 | 0.00 | 0.00 | 76 | 1017.7 |
| 20260508091604 | 46 | 135 | 0.9 | 2.6 | 0.00 | 0.00 | 0.00 | 75 | 1017.6 |
| 20260508090032 | 47 | 131 | 1.7 | 4.3 | 0.00 | 0.00 | 0.00 | 73 | 1017.6 |
| 20260508084532 | 49 | 140 | 0.9 | 3.5 | 0.00 | 0.00 | 0.00 | 70 | 1017.6 |
| 20260508083106 | 50 | 148 | 1.7 | 3.5 | 0.00 | 0.00 | 0.00 | 67 | 1017.6 |
| 20260508081530 | 49 | 114 | 3.5 | 6.1 | 0.00 | 0.00 | 0.00 | 68 | 1017.7 |
| 20260508080032 | 50 | 112 | 2.6 | 6.1 | 0.00 | 0.00 | 0.00 | 66 | 1017.6 |
| 20260508074532 | 50 | 117 | 4.3 | 7.0 | 0.00 | 0.00 | 0.00 | 66 | 1017.6 |
| 20260508073032 | 50 | 116 | 3.5 | 6.1 | 0.00 | 0.00 | 0.00 | 65 | 1017.6 |
| 20260508070036 | 49 | 120 | 3.5 | 5.2 | 0.00 | 0.00 | 0.00 | 64 | 1017.5 |
| 20260508064531 | 49 | 116 | 3.5 | 6.1 | 0.00 | 0.00 | 0.00 | 64 | 1017.5 |
| 20260508061537 | 49 | 115 | 3.5 | 5.2 | 0.00 | 0.00 | 0.00 | 63 | 1017.5 |
| 20260508060144 | 49 | 97 | 2.6 | 5.2 | 0.00 | 0.00 | 0.00 | 62 | 1017.5 |
| 20260508054532 | 49 | 113 | 2.6 | 5.2 | 0.00 | 0.00 | 0.00 | 62 | 1017.5 |
| 20260508053030 | 49 | 96 | 2.6 | 4.3 | 0.00 | 0.00 | 0.00 | 61 | 1017.6 |
| 20260508051647 | 50 | 111 | 0.9 | 4.3 | 0.00 | 0.00 | 0.00 | 59 | 1017.5 |
| 20260508050030 | 50 | 138 | 2.6 | 5.2 | 0.00 | 0.00 | 0.00 | 57 | 1017.5 |
| 20260508044606 | 51 | 117 | 2.6 | 5.2 | 0.00 | 0.00 | 0.00 | 55 | 1017.4 |
| 20260508043138 | 52 | 112 | 3.5 | 5.2 | 0.00 | 0.00 | 0.00 | 53 | 1017.3 |
| 20260508041530 | 53 | 112 | 2.6 | 4.3 | 0.00 | 0.00 | 0.00 | 50 | 1017.3 |
| 20260508030033 | 63 | 228 | 0.9 | 3.5 | 0.00 | 0.00 | 0.00 | 32 | 1016.6 |
| 20260508024648 | 64 | 263 | 0.9 | 4.3 | 0.00 | 0.00 | 0.00 | 29 | 1016.6 |
| 20260508023029 | 66 | 270 | 2.6 | 7.0 | 0.00 | 0.00 | 0.00 | 28 | 1016.5 |
| 20260508020029 | 68 | 294 | 4.3 | 10.4 | 0.00 | 0.00 | 0.00 | 25 | 1016.4 |
| 20260508014605 | 69 | 306 | 6.1 | 13.0 | 0.00 | 0.00 | 0.00 | 24 | 1016.3 |
| 20260508013048 | 71 | 304 | 6.1 | 14.8 | 0.00 | 0.00 | 0.00 | 23 | 1016.3 |
| 20260508011530 | 72 | 307 | 5.2 | 13.9 | 0.00 | 0.00 | 0.00 | 24 | 1016.4 |
| 20260508010031 | 70 | 314 | 5.2 | 13.0 | 0.00 | 0.00 | 0.00 | 23 | 1016.4 |
| 20260508004528 | 70 | 321 | 5.2 | 14.8 | 0.00 | 0.00 | 0.00 | 23 | 1016.4 |
| 20260508003029 | 70 | 323 | 6.1 | 13.0 | 0.00 | 0.00 | 0.00 | 22 | 1016.4 |
| 20260508000033 | 70 | 333 | 7.0 | 14.8 | 0.00 | 0.00 | 0.00 | 23 | 1016.3 |
| 20260507233032 | 70 | 316 | 7.8 | 13.9 | 0.00 | 0.00 | 0.00 | 27 | 1016.4 |
| 20260507231607 | 70 | 315 | 7.8 | 16.5 | 0.00 | 0.00 | 0.00 | 28 | 1016.6 |
| 20260507224539 | 70 | 307 | 8.7 | 16.5 | 0.00 | 0.00 | 0.00 | 30 | 1016.6 |
| 20260507223057 | 71 | 306 | 7.8 | 16.5 | 0.00 | 0.00 | 0.00 | 31 | 1016.8 |
| 20260507221532 | 71 | 314 | 7.0 | 16.5 | 0.00 | 0.00 | 0.00 | 32 | 1016.9 |
| 20260507220033 | 71 | 316 | 6.1 | 13.0 | 0.00 | 0.00 | 0.00 | 35 | 1017.1 |
| 20260507214530 | 70 | 334 | 6.1 | 12.2 | 0.00 | 0.00 | 0.00 | 37 | 1017.3 |
| 20260507213030 | 70 | 349 | 5.2 | 12.2 | 0.00 | 0.00 | 0.00 | 40 | 1017.5 |
| 20260507211540 | 70 | 344 | 6.1 | 13.9 | 0.00 | 0.00 | 0.00 | 41 | 1017.5 |
| 20260507210030 | 70 | 339 | 5.2 | 10.4 | 0.00 | 0.00 | 0.00 | 41 | 1017.7 |
| 20260507204530 | 70 | 351 | 5.2 | 11.3 | 0.00 | 0.00 | 0.00 | 41 | 1017.8 |
| 20260507203032 | 69 | 1 | 5.2 | 8.7 | 0.00 | 0.00 | 0.00 | 41 | 1018.0 |
| 20260507201538 | 69 | 338 | 5.2 | 9.6 | 0.00 | 0.00 | 0.00 | 42 | 1018.1 |
| 20260507200031 | 68 | 332 | 6.1 | 12.2 | 0.00 | 0.00 | 0.00 | 44 | 1018.3 |
| 20260507194529 | 67 | 343 | 5.2 | 10.4 | 0.00 | 0.00 | 0.00 | 46 | 1018.3 |
| 20260507193107 | 66 | 350 | 6.1 | 10.4 | 0.00 | 0.00 | 0.00 | 48 | 1018.5 |
| 20260507191530 | 65 | 345 | 5.2 | 11.3 | 0.00 | 0.00 | 0.00 | 51 | 1018.6 |
| 20260507190033 | 64 | 330 | 7.0 | 15.6 | 0.00 | 0.00 | 0.00 | 52 | 1018.8 |
| 20260507183041 | 63 | 351 | 6.1 | 13.0 | 0.00 | 0.00 | 0.00 | 57 | 1019.2 |
| 20260507180107 | 61 | 356 | 4.3 | 9.6 | 0.00 | 0.00 | 0.00 | 59 | 1019.4 |
| 20260507173029 | 59 | 359 | 4.3 | 8.7 | 0.00 | 0.00 | 0.00 | 64 | 1019.9 |
| 20260507171533 | 59 | 349 | 4.3 | 9.6 | 0.00 | 0.00 | 0.00 | 65 | 1020.1 |
| 20260507170031 | 58 | 355 | 4.3 | 7.8 | 0.00 | 0.00 | 0.00 | 67 | 1020.1 |
| 20260507164532 | 57 | 343 | 5.2 | 9.6 | 0.00 | 0.00 | 0.00 | 69 | 1020.2 |
| 20260507163037 | 57 | 11 | 5.2 | 10.4 | 0.00 | 0.00 | 0.00 | 70 | 1020.3 |
| 20260507161532 | 56 | 355 | 3.5 | 9.6 | 0.00 | 0.00 | 0.00 | 72 | 1020.3 |
| 20260507160107 | 55 | 337 | 4.3 | 11.3 | 0.00 | 0.00 | 0.00 | 73 | 1020.4 |
| 20260507151648 | 54 | 327 | 3.5 | 7.0 | 0.00 | 0.00 | 0.00 | 77 | 1020.6 |
| 20260507150038 | 53 | 336 | 4.3 | 12.2 | 0.00 | 0.00 | 0.00 | 79 | 1020.7 |
| 20260507144607 | 52 | 335 | 4.3 | 10.4 | 0.00 | 0.00 | 0.00 | 81 | 1020.6 |
| 20260507143106 | 51 | 357 | 3.5 | 9.6 | 0.00 | 0.00 | 0.00 | 83 | 1020.6 |
| 20260507141530 | 50 | 17 | 2.6 | 7.8 | 0.00 | 0.00 | 0.00 | 84 | 1020.6 |